Big Rapids, MI

2:37 AM EDT on October 22, 2017 (GMT -0400)
Roben-Hood

Weather History for KRQB - February, 2015

Change the Weather History Date:

Sunday, February 8, 2015

  Actual Average Record
Temperature  
Mean Temperature 22 °F -  
Max Temperature 29 °F 29 °F 56 °F (1990)
Min Temperature 15 °F 7 °F -17 °F (1985)
Degree Days  
Heating Degree Days 43    
Moisture  
Dew Point 24 °F    
Average Humidity 93    
Maximum Humidity 100    
Minimum Humidity 83    
Precipitation  
Precipitation 0.00 in - - ()
Sea Level Pressure  
Sea Level Pressure 29.77 in    
Wind  
Wind Speed 7 mph (ENE)    
Max Wind Speed 13 mph    
Max Gust Speed 21 mph    
Visibility 7 miles    
Events Snow    
Averages and records for this station are not official NWS values.
T = Trace of Precipitation, MM = Missing Value Source: NWS Daily Summary

Daily Weather History Graph

Daily Weather History Graph

Search for Another Location

Airport or City:

Trip Planner

Search our weather history database for the weather conditions in past years. The results will help you decide how hot, cold, wet, or windy it might be!

Date:

Astronomy

Feb. 08, 2015 Rise Set
Actual Time 7:50 AM EST 6:02 PM EST
Civil Twilight 7:20 AM EST 6:32 PM EST
Nautical Twilight 6:46 AM EST 7:06 PM EST
Astronomical Twilight 6:13 AM EST 7:39 PM EST
Moon 10:50 PM EST (2/8) 9:48 AM EST (2/8)
Length of Visible Light 11h 11m
Length of Day
10h 11m
Waning Gibbous, 81% of the Moon is Illuminated
Feb 8
Waning Gibbous
Feb 11
Last Quarter
Feb 18
New
Feb 25
First Quarter
Mar 5
Full

Hourly Weather History & Observations

Time (EST) Temp. Windchill Dew Point Humidity Pressure Visibility Wind Dir Wind Speed Gust Speed Precip Events Conditions
12:14 AM 29.5 °F 23.4 °F 25.5 °F 85% 29.65 in 7.0 mi East 5.8 mph - N/A   Overcast
12:35 AM 29.7 °F 23.7 °F 25.7 °F 85% 29.65 in 7.0 mi East 5.8 mph - N/A   Overcast
12:54 AM 29.3 °F 22.3 °F 25.7 °F 86% 29.64 in 7.0 mi East 6.9 mph - N/A   Overcast
1:14 AM 29.3 °F 22.3 °F 25.9 °F 87% 29.63 in 7.0 mi East 6.9 mph - N/A   Overcast
1:35 AM 29.3 °F 23.2 °F 26.2 °F 88% 29.62 in 7.0 mi East 5.8 mph - N/A   Overcast
1:54 AM 29.3 °F 22.3 °F 26.4 °F 89% 29.62 in 7.0 mi East 6.9 mph - N/A   Overcast
2:14 AM 29.3 °F 23.2 °F 26.6 °F 90% 29.62 in 7.0 mi East 5.8 mph - N/A   Overcast
2:34 AM 29.7 °F 23.7 °F 26.6 °F 88% 29.62 in 7.0 mi East 5.8 mph - N/A   Overcast
2:54 AM 29.8 °F 23.9 °F 27.0 °F 89% 29.62 in 7.0 mi East 5.8 mph - N/A   Overcast
3:14 AM 29.8 °F 24.9 °F 27.0 °F 89% 29.62 in 7.0 mi ENE 4.6 mph - N/A   Overcast
3:34 AM 29.8 °F 23.0 °F 27.0 °F 89% 29.62 in 7.0 mi ENE 6.9 mph - N/A   Overcast
3:54 AM 29.5 °F 23.4 °F 27.1 °F 91% 29.61 in 7.0 mi East 5.8 mph - N/A   Overcast
4:14 AM 29.3 °F 23.2 °F 27.3 °F 92% 29.62 in 5.0 mi ENE 5.8 mph - N/A   Overcast
4:34 AM 29.1 °F 22.1 °F 27.7 °F 94% 29.60 in 4.0 mi ENE 6.9 mph - N/A   Overcast
4:54 AM 29.1 °F 23.0 °F 28.2 °F 96% 29.62 in 3.0 mi ENE 5.8 mph - N/A   Overcast
5:14 AM 29.1 °F 23.0 °F 28.4 °F 97% 29.62 in 2.5 mi ENE 5.8 mph - N/A   Overcast
5:34 AM 29.1 °F 22.1 °F 28.9 °F 99% 29.63 in 2.0 mi ENE 6.9 mph - N/A   Overcast
5:54 AM 29.1 °F 20.6 °F 29.1 °F 100% 29.65 in 2.0 mi ENE 9.2 mph - N/A   Overcast
6:14 AM 29.1 °F 24.1 °F 29.1 °F 100% 29.65 in 2.0 mi NE 4.6 mph - N/A   Overcast
6:34 AM 28.8 °F 20.9 °F 28.8 °F 100% 29.64 in 2.5 mi East 8.1 mph - N/A   Overcast
6:54 AM 28.8 °F 21.7 °F 28.8 °F 100% 29.63 in 3.0 mi ENE 6.9 mph - N/A   Overcast
7:14 AM 28.4 °F 19.7 °F 28.4 °F 100% 29.64 in 4.0 mi ENE 9.2 mph - N/A   Overcast
7:34 AM 28.4 °F 19.7 °F 28.4 °F 100% 29.65 in 7.0 mi ENE 9.2 mph - N/A   Overcast
7:54 AM 28.4 °F 23.3 °F 28.4 °F 100% 29.66 in 5.0 mi ENE 4.6 mph - N/A   Overcast
8:15 AM 28.4 °F 22.2 °F 28.2 °F 99% 29.67 in 7.0 mi ENE 5.8 mph - N/A   Overcast
8:34 AM 28.2 °F 21.0 °F 28.0 °F 99% 29.68 in 5.0 mi ENE 6.9 mph - N/A   Overcast
8:54 AM 28.2 °F 24.4 °F 27.9 °F 99% 29.70 in 5.0 mi NE 3.5 mph - N/A   Overcast
9:15 AM 28.4 °F 23.3 °F 28.2 °F 99% 29.70 in 5.0 mi NE 4.6 mph - N/A   Overcast
9:34 AM 28.4 °F 22.2 °F 28.2 °F 99% 29.70 in 7.0 mi ENE 5.8 mph - N/A   Overcast
9:54 AM 28.4 °F 19.7 °F 28.2 °F 99% 29.70 in 5.0 mi ENE 9.2 mph - N/A   Overcast
10:15 AM 28.4 °F 21.2 °F 28.0 °F 99% 29.69 in 7.0 mi NE 6.9 mph - N/A   Overcast
10:34 AM 28.2 °F 20.2 °F 27.9 °F 99% 29.70 in 7.0 mi ENE 8.1 mph - N/A   Overcast
10:54 AM 28.2 °F 20.2 °F 27.7 °F 98% 29.70 in 7.0 mi ENE 8.1 mph 16.1 mph N/A   Overcast
11:15 AM 28.2 °F 20.2 °F 27.9 °F 99% 29.71 in 7.0 mi NE 8.1 mph - N/A   Overcast
11:34 AM 28.2 °F 21.0 °F 27.9 °F 99% 29.73 in 10.0 mi NE 6.9 mph - N/A   Overcast
11:54 AM 28.0 °F 21.7 °F 27.5 °F 98% 29.74 in 10.0 mi ENE 5.8 mph - N/A   Overcast
12:15 PM 28.0 °F 19.3 °F 27.5 °F 98% 29.74 in 10.0 mi NE 9.2 mph - N/A   Overcast
12:34 PM 27.5 °F 20.2 °F 27.1 °F 99% 29.75 in 10.0 mi NE 6.9 mph - N/A   Overcast
12:54 PM 27.5 °F 19.3 °F 27.0 °F 98% 29.76 in 10.0 mi NE 8.1 mph - N/A   Overcast
1:15 PM 27.3 °F 19.9 °F 26.6 °F 97% 29.75 in 10.0 mi ENE 6.9 mph - N/A   Overcast
1:34 PM 27.3 °F 17.7 °F 26.2 °F 96% 29.75 in 10.0 mi ENE 10.4 mph 19.6 mph N/A   Overcast
1:54 PM 26.6 °F 16.8 °F 25.7 °F 96% 29.75 in 10.0 mi ENE 10.4 mph - N/A   Overcast
2:14 PM 26.6 °F 16.2 °F 25.5 °F 96% 29.76 in 10.0 mi East 11.5 mph - N/A   Overcast
2:34 PM 26.1 °F 15.6 °F 24.8 °F 95% 29.77 in 10.0 mi East 11.5 mph - N/A   Overcast
2:54 PM 25.5 °F 16.9 °F 24.4 °F 96% 29.78 in 10.0 mi ENE 8.1 mph - N/A   Overcast
3:14 PM 25.2 °F 13.9 °F 23.4 °F 93% 29.79 in 10.0 mi East 12.7 mph - N/A   Overcast
3:34 PM 24.8 °F 13.4 °F 23.0 °F 93% 29.80 in 10.0 mi East 12.7 mph 17.3 mph N/A   Overcast
3:54 PM 24.3 °F 13.9 °F 22.8 °F 94% 29.80 in 1.8 mi ENE 10.4 mph - N/A Snow Light Snow
4:14 PM 24.3 °F 14.6 °F 23.0 °F 95% 29.82 in 1.2 mi ENE 9.2 mph - N/A Snow Light Snow
4:34 PM 23.5 °F 14.5 °F 22.1 °F 94% 29.82 in 1.0 mi ENE 8.1 mph - N/A Snow Light Snow
4:54 PM 23.4 °F 14.3 °F 22.1 °F 95% 29.83 in 0.5 mi ENE 8.1 mph - N/A Snow Light Snow
5:14 PM 23.2 °F 15.0 °F 21.9 °F 95% 29.84 in 3.0 mi NNE 6.9 mph - N/A Snow Light Snow
5:34 PM 22.8 °F 12.2 °F 20.5 °F 91% 29.86 in 10.0 mi NE 10.4 mph - N/A   Overcast
5:54 PM 22.3 °F 12.2 °F 19.2 °F 88% 29.87 in 10.0 mi NE 9.2 mph - N/A   Overcast
6:14 PM 22.1 °F 12.8 °F 18.5 °F 86% 29.89 in 10.0 mi ENE 8.1 mph - N/A   Overcast
6:34 PM 21.7 °F 12.3 °F 18.3 °F 87% 29.90 in 10.0 mi NE 8.1 mph - N/A   Overcast
6:54 PM 21.6 °F 12.1 °F 18.0 °F 86% 29.91 in 10.0 mi ENE 8.1 mph - N/A   Overcast
7:14 PM 21.2 °F 12.6 °F 17.6 °F 86% 29.93 in 10.0 mi NE 6.9 mph - N/A   Overcast
7:34 PM 20.5 °F 8.0 °F 16.5 °F 85% 29.94 in 10.0 mi ENE 12.7 mph - N/A   Overcast
7:54 PM 20.1 °F 8.8 °F 15.8 °F 83% 29.94 in 10.0 mi ENE 10.4 mph 18.4 mph N/A   Overcast
8:14 PM 19.8 °F 10.8 °F 16.2 °F 86% 29.95 in 10.0 mi NE 6.9 mph - N/A   Overcast
8:34 PM 18.7 °F 8.6 °F 16.2 °F 90% 29.96 in 10.0 mi NNE 8.1 mph - N/A   Overcast
8:55 PM 18.3 °F 10.2 °F 15.8 °F 90% 29.97 in 10.0 mi NE 5.8 mph - N/A   Overcast
9:14 PM 18.1 °F 5.6 °F 15.8 °F 91% 29.98 in 10.0 mi ENE 11.5 mph 17.3 mph N/A   Overcast
9:34 PM 17.6 °F 9.3 °F 14.5 °F 88% 29.99 in 10.0 mi NE 5.8 mph - N/A   Overcast
9:55 PM 17.2 °F 6.0 °F 13.5 °F 85% 29.99 in 10.0 mi NE 9.2 mph 20.7 mph N/A   Overcast
10:14 PM 17.1 °F 5.0 °F 13.5 °F 86% 30.00 in 10.0 mi NE 10.4 mph - N/A   Overcast
10:34 PM 16.5 °F 6.9 °F 13.1 °F 86% 30.00 in 10.0 mi NE 6.9 mph - N/A Snow Light Snow
10:55 PM 16.2 °F 4.7 °F 12.7 °F 86% 30.01 in 7.0 mi NNE 9.2 mph - N/A Snow Light Snow
11:14 PM 15.8 °F 4.2 °F 11.8 °F 84% 30.01 in 10.0 mi NE 9.2 mph - N/A Snow Light Snow
11:34 PM 15.4 °F 4.6 °F 11.7 °F 85% 30.02 in 7.0 mi NNE 8.1 mph - N/A Snow Light Snow
11:55 PM 15.1 °F 6.4 °F 11.3 °F 85% 30.02 in 10.0 mi NE 5.8 mph - N/A Snow Light Snow